• In Slovakia
  • List of Countries
  • For 7 days
  • Water Temperature
  • Satellite Maps
  • Weather Map
  • Weather Widgets
  • user-avatar
    Login

    Hourly Weather Tumusin

    Today, 18 June, Monday

    Time Temperature Precipitation Wind Pressure Humidity
    00:00 +20°C° 0 mm 2 mps 749 mmHg 67%
    01:00 +20°C° 0 mm 2 mps 749 mmHg 68%
    02:00 +19°C° 0 mm 2 mps 749 mmHg 72%
    03:00 +19°C° 0 mm 1 mps 749 mmHg 75%
    04:00 +19°C° 0 mm 1 mps 749 mmHg 78%
    05:00 +19°C° 0.1 mm 2 mps 750 mmHg 77%
    06:00 +20°C° 0.1 mm 2 mps 750 mmHg 75%
    07:00 +21°C° 0.1 mm 3 mps 751 mmHg 74%
    08:00 +21°C° 0.3 mm 3 mps 751 mmHg 72%
    09:00 +22°C° 0.3 mm 4 mps 751 mmHg 71%
    10:00 +23°C° 0.3 mm 5 mps 751 mmHg 69%
    11:00 +23°C° 0.4 mm 4 mps 751 mmHg 66%
    12:00 +25°C° 0.4 mm 4 mps 751 mmHg 62%
    13:00 +26°C° 0.4 mm 4 mps 751 mmHg 59%
    14:00 +26°C° 0 mm 4 mps 751 mmHg 57%
    15:00 +26°C° 0 mm 4 mps 751 mmHg 56%
    16:00 +26°C° 0 mm 4 mps 751 mmHg 55%
    17:00 +25°C° 0 mm 4 mps 751 mmHg 60%
    18:00 +24°C° 0 mm 3 mps 751 mmHg 65%
    19:00 +22°C° 0 mm 3 mps 751 mmHg 70%
    20:00 +20°C° 0 mm 2 mps 751 mmHg 73%
    21:00 +19°C° 0 mm 2 mps 752 mmHg 77%
    22:00 +18°C° 0 mm 2 mps 752 mmHg 80%
    23:00 +17°C° 0 mm 2 mps 752 mmHg 82%

    Tomorrow, 19 June, Tuesday

    Time Temperature Precipitation Wind Pressure Humidity
    00:00 +17°C° 0 mm 2 mps 752 mmHg 84%
    01:00 +16°C° 0 mm 1 mps 752 mmHg 85%
    02:00 +16°C° 0 mm 2 mps 753 mmHg 86%
    03:00 +16°C° 0 mm 2 mps 753 mmHg 86%
    04:00 +15°C° 0 mm 2 mps 753 mmHg 87%
    05:00 +17°C° 0 mm 2 mps 753 mmHg 80%
    06:00 +18°C° 0 mm 2 mps 753 mmHg 74%
    07:00 +20°C° 0 mm 3 mps 753 mmHg 67%
    08:00 +21°C° 0 mm 3 mps 753 mmHg 63%
    09:00 +24°C° 0 mm 3 mps 753 mmHg 59%
    10:00 +25°C° 0 mm 4 mps 753 mmHg 55%
    11:00 +25°C° 0 mm 4 mps 753 mmHg 55%
    12:00 +26°C° 0 mm 4 mps 753 mmHg 56%
    13:00 +26°C° 0 mm 4 mps 753 mmHg 56%
    14:00 +26°C° 0 mm 4 mps 753 mmHg 58%
    15:00 +26°C° 0 mm 4 mps 753 mmHg 59%
    16:00 +26°C° 0 mm 4 mps 753 mmHg 60%
    17:00 +25°C° 0 mm 3 mps 753 mmHg 63%
    18:00 +24°C° 0 mm 3 mps 753 mmHg 67%
    19:00 +24°C° 0 mm 2 mps 753 mmHg 70%
    20:00 +21°C° 0 mm 2 mps 753 mmHg 73%
    21:00 +20°C° 0 mm 2 mps 754 mmHg 75%
    22:00 +19°C° 0 mm 2 mps 754 mmHg 77%
    23:00 +18°C° 0 mm 2 mps 754 mmHg 80%

    Day after tomorrow, 20 June, Wednesday

    Time Temperature Precipitation Wind Pressure Humidity
    00:00 +18°C° 0 mm 2 mps 754 mmHg 82%
    01:00 +17°C° 0 mm 2 mps 754 mmHg 85%
    02:00 +18°C° 0 mm 1 mps 755 mmHg 87%
    03:00 +18°C° 0 mm 1 mps 755 mmHg 89%
    04:00 +16°C° 0 mm 1 mps 755 mmHg 90%
    05:00 +19°C° 0 mm 1 mps 755 mmHg 85%
    06:00 +20°C° 0 mm 1 mps 755 mmHg 79%
    07:00 +22°C° 0 mm 1 mps 755 mmHg 73%
    08:00 +23°C° 0 mm 1 mps 755 mmHg 69%
    09:00 +25°C° 0 mm 1 mps 755 mmHg 64%
    10:00 +26°C° 0 mm 1 mps 755 mmHg 60%
    11:00 +26°C° 0.1 mm 1 mps 755 mmHg 58%
    12:00 +27°C° 0.1 mm 1 mps 754 mmHg 57%
    13:00 +27°C° 0.1 mm 1 mps 754 mmHg 56%
    14:00 +27°C° 0 mm 1 mps 754 mmHg 56%
    15:00 +27°C° 0 mm 1 mps 753 mmHg 55%
    16:00 +28°C° 0 mm 1 mps 753 mmHg 55%
    17:00 +27°C° 0 mm 1 mps 753 mmHg 59%
    18:00 +26°C° 0 mm 1 mps 753 mmHg 64%
    19:00 +25°C° 0 mm 1 mps 753 mmHg 69%
    20:00 +24°C° 0 mm 1 mps 753 mmHg 71%
    21:00 +23°C° 0 mm 1 mps 753 mmHg 73%
    22:00 +22°C° 0 mm 1 mps 753 mmHg 76%
    23:00 +22°C° 0 mm 1 mps 753 mmHg 77%

    21 June, Thursday

    Time Temperature Precipitation Wind Pressure Humidity
    00:00 +22°C° 0 mm 1 mps 752 mmHg 78%
    01:00 +21°C° 0 mm 1 mps 752 mmHg 80%
    02:00 +20°C° 0 mm 2 mps 752 mmHg 81%
    03:00 +20°C° 0 mm 2 mps 751 mmHg 83%
    04:00 +19°C° 0 mm 2 mps 751 mmHg 84%
    05:00 +21°C° 0 mm 2 mps 751 mmHg 79%
    06:00 +22°C° 0 mm 3 mps 750 mmHg 74%
    07:00 +25°C° 0 mm 3 mps 750 mmHg 69%
    08:00 +26°C° 0 mm 3 mps 749 mmHg 63%
    09:00 +28°C° 0 mm 4 mps 749 mmHg 58%
    10:00 +29°C° 0 mm 4 mps 748 mmHg 52%
    11:00 +29°C° 0 mm 4 mps 748 mmHg 51%
    12:00 +30°C° 0 mm 4 mps 747 mmHg 50%
    13:00 +32°C° 0 mm 4 mps 746 mmHg 48%
    14:00 +32°C° 0 mm 4 mps 745 mmHg 49%
    15:00 +32°C° 0 mm 4 mps 745 mmHg 49%
    16:00 +32°C° 0 mm 4 mps 744 mmHg 49%
    17:00 +30°C° 0.1 mm 3 mps 743 mmHg 55%
    18:00 +29°C° 0.1 mm 3 mps 743 mmHg 60%
    19:00 +28°C° 0.1 mm 3 mps 742 mmHg 66%
    20:00 +26°C° 0.9 mm 3 mps 742 mmHg 73%
    21:00 +24°C° 0.9 mm 3 mps 743 mmHg 80%
    22:00 +21°C° 0.9 mm 4 mps 743 mmHg 87%
    23:00 +20°C° 0.1 mm 5 mps 743 mmHg 88%

    22 June, Friday

    Time Temperature Precipitation Wind Pressure Humidity
    00:00 +19°C° 0.1 mm 6 mps 744 mmHg 90%
    01:00 +17°C° 0.1 mm 7 mps 744 mmHg 91%
    02:00 +15°C° 0.1 mm 7 mps 745 mmHg 90%
    03:00 +14°C° 0.1 mm 7 mps 745 mmHg 89%
    04:00 +11°C° 0.1 mm 6 mps 746 mmHg 88%
    05:00 +11°C° 0 mm 6 mps 746 mmHg 83%
    06:00 +13°C° 0 mm 6 mps 747 mmHg 78%
    07:00 +13°C° 0 mm 6 mps 747 mmHg 74%
    08:00 +14°C° 0 mm 6 mps 747 mmHg 68%
    09:00 +15°C° 0 mm 7 mps 748 mmHg 62%
    10:00 +16°C° 0 mm 7 mps 748 mmHg 57%
    11:00 +16°C° 0 mm 7 mps 748 mmHg 56%
    12:00 +16°C° 0 mm 7 mps 748 mmHg 55%
    13:00 +16°C° 0 mm 7 mps 748 mmHg 54%
    14:00 +16°C° 0 mm 7 mps 748 mmHg 53%
    15:00 +16°C° 0 mm 7 mps 748 mmHg 51%
    16:00 +16°C° 0 mm 6 mps 748 mmHg 50%
    17:00 +15°C° 0 mm 5 mps 748 mmHg 54%
    18:00 +15°C° 0 mm 4 mps 747 mmHg 58%
    19:00 +14°C° 0 mm 3 mps 747 mmHg 62%
    20:00 +13°C° 0 mm 4 mps 748 mmHg 65%
    21:00 +12°C° 0 mm 4 mps 748 mmHg 68%
    22:00 +11°C° 0 mm 4 mps 748 mmHg 71%
    23:00 +11°C° 0 mm 4 mps 748 mmHg 73%

    23 June, Saturday

    Time Temperature Precipitation Wind Pressure Humidity
    00:00 +11°C° 0 mm 4 mps 748 mmHg 75%
    01:00 +9°C° 0 mm 5 mps 747 mmHg 77%
    02:00 +9°C° 0 mm 5 mps 747 mmHg 80%
    03:00 +9°C° 0 mm 5 mps 748 mmHg 82%
    04:00 +8°C° 0 mm 4 mps 748 mmHg 85%
    05:00 +9°C° 0.1 mm 5 mps 748 mmHg 82%
    06:00 +10°C° 0.1 mm 5 mps 748 mmHg 80%
    07:00 +12°C° 0.1 mm 5 mps 748 mmHg 78%
    08:00 +13°C° 0.4 mm 5 mps 748 mmHg 76%
    09:00 +14°C° 0.4 mm 6 mps 748 mmHg 74%
    10:00 +14°C° 0.4 mm 6 mps 748 mmHg 73%
    11:00 +15°C° 0.7 mm 6 mps 748 mmHg 70%
    12:00 +16°C° 0.7 mm 6 mps 748 mmHg 67%
    13:00 +16°C° 0.7 mm 6 mps 748 mmHg 65%
    14:00 +17°C° 0.3 mm 6 mps 748 mmHg 62%
    15:00 +17°C° 0.3 mm 5 mps 748 mmHg 59%
    16:00 +17°C° 0.3 mm 5 mps 748 mmHg 57%
    17:00 +18°C° 0.2 mm 4 mps 748 mmHg 62%
    18:00 +17°C° 0.2 mm 4 mps 749 mmHg 68%
    19:00 +16°C° 0.2 mm 3 mps 749 mmHg 73%
    20:00 +14°C° 0 mm 3 mps 749 mmHg 76%
    21:00 +13°C° 0 mm 3 mps 750 mmHg 79%
    22:00 +12°C° 0 mm 3 mps 750 mmHg 82%
    23:00 +12°C° 0.1 mm 3 mps 750 mmHg 85%
    Show more